GFSFLT1_sfc_thetae_132.txt.gz
Theta_e
344 348 352 352 353 355 355 359 358 353 351 352 350 351 352 353 353 353 352 351 351 350 351 353 356 353 350 348 348 344 340 340
342 345 351 353 353 354 356 359 358 357 352 353 352 351 353 352 354 357 354 352 352 350 347 348 349 348 348 348 345 345 345 344
345 349 351 355 353 355 358 360 359 358 357 355 354 354 354 355 355 357 355 353 352 351 350 349 349 347 348 348 346 344 345 345
342 350 351 354 355 356 359 360 362 361 361 360 357 357 357 356 354 355 357 355 355 353 352 351 349 347 346 346 346 346 345 344
340 351 353 355 356 358 360 360 361 359 362 361 359 357 357 356 354 358 357 358 357 357 352 350 348 351 351 350 349 349 349 349
341 352 356 358 357 357 360 358 360 357 360 359 358 357 358 356 356 356 357 358 358 357 352 351 350 351 349 348 348 348 349 349
337 350 354 359 360 359 358 360 357 356 359 359 357 360 358 356 356 356 358 357 358 357 353 352 355 350 350 351 351 351 349 347
320 342 346 353 359 362 361 359 356 356 356 356 354 354 355 355 356 356 359 359 359 359 356 355 354 348 349 351 352 350 342 341
320 322 334 345 355 360 362 359 358 352 348 348 349 350 350 351 354 357 358 358 358 357 352 353 352 349 350 342 340 339 341 341
318 321 329 342 349 356 359 359 352 349 350 351 350 351 350 351 352 355 356 356 356 355 354 350 349 345 343 341 339 338 339 343
317 318 323 335 342 349 355 358 351 350 354 350 349 351 351 349 348 348 351 352 353 352 349 348 346 343 342 345 343 342 338 342
317 318 322 330 337 345 352 356 348 347 349 347 352 347 344 346 347 348 348 348 349 350 349 347 346 344 342 345 345 345 344 337
315 317 320 326 333 341 351 353 344 343 345 349 349 348 347 348 348 349 349 347 348 347 348 346 347 346 346 347 347 345 341 340
316 318 321 326 333 342 350 339 340 340 344 348 348 348 346 344 345 344 344 343 345 346 346 347 347 345 345 344 343 343 343 341
316 316 320 328 339 340 339 337 337 341 347 343 343 346 347 346 346 347 343 341 341 344 344 344 342 343 344 345 342 341 338 335
316 319 326 336 334 334 334 336 337 338 336 336 340 345 341 339 338 341 339 338 337 339 342 342 340 338 339 339 334 333 334 331
322 327 333 330 332 331 331 333 333 333 334 334 335 335 335 333 334 335 332 333 331 332 333 334 334 333 332 332 329 330 330 330
321 323 325 328 329 331 334 335 333 332 332 331 330 330 330 330 329 328 328 328 328 328 327 328 328 328 328 329 327 328 326 325
317 318 323 326 328 330 330 328 327 327 326 326 325 323 322 321 321 321 322 323 323 322 322 323 323 324 325 325 325 324 323 324
315 318 321 323 323 325 325 325 324 324 323 321 319 318 317 314 314 315 316 318 319 318 318 318 318 318 320 319 318 319 318 318

GFSFLT1_sfc_thetae_135.txt.gz
Theta_e
339 343 351 351 353 353 353 357 358 352 349 353 349 350 349 349 350 351 352 348 350 346 348 351 353 353 350 348 346 344 342 340
337 339 348 352 353 354 355 357 356 360 350 352 349 350 351 350 351 353 353 349 352 350 345 349 350 349 349 348 345 347 342 340
333 340 344 355 355 356 357 362 360 358 363 353 352 352 352 354 354 356 353 353 354 352 350 348 348 346 347 346 346 347 345 345
325 339 343 352 357 357 360 361 370 365 361 364 358 360 357 356 355 356 357 357 358 353 352 350 349 348 347 346 346 346 344 344
320 336 344 350 356 360 364 363 367 369 368 364 359 356 356 355 355 360 358 359 362 359 353 351 350 352 353 352 349 348 346 344
320 329 347 350 354 359 360 360 363 366 366 364 360 358 356 356 357 356 358 361 359 360 353 352 352 353 349 348 347 344 343 343
322 329 348 351 357 361 361 362 360 362 367 365 364 367 360 360 360 358 361 360 359 359 355 353 362 351 350 349 348 351 350 348
320 336 349 358 359 361 365 363 365 359 360 364 359 359 358 358 359 359 361 359 358 361 356 360 357 355 349 349 354 353 351 349
320 337 351 356 359 360 362 360 368 358 355 355 352 351 354 355 356 359 360 359 359 362 358 355 356 353 354 352 352 346 343 345
319 326 346 348 354 358 363 361 361 358 356 356 355 355 354 354 355 358 360 356 357 356 356 354 355 355 352 344 345 339 341 342
318 321 328 338 348 354 359 362 360 354 355 356 357 358 353 353 356 355 355 354 355 355 355 356 354 352 343 341 344 346 339 345
317 320 323 334 341 350 355 355 356 353 353 352 354 348 349 349 351 351 352 353 353 352 352 352 353 347 343 344 344 348 343 340
316 318 322 327 335 343 352 352 353 352 350 352 352 355 349 348 347 355 354 351 351 348 351 351 349 346 347 347 347 347 348 343
317 319 322 325 331 340 350 352 347 346 348 352 356 354 349 345 346 348 351 346 349 348 347 350 351 351 349 347 349 347 346 347
316 317 318 321 325 340 350 346 341 344 348 348 350 351 351 349 347 344 345 343 348 347 346 347 350 346 346 346 347 345 343 341
317 317 319 319 341 344 343 342 340 345 346 346 348 350 347 345 347 344 342 342 341 342 342 344 343 340 340 341 339 338 340 335
317 318 320 339 340 339 339 339 340 340 341 342 344 345 343 341 342 342 337 338 335 335 335 335 335 334 335 336 333 336 334 335
321 329 336 335 334 335 336 336 336 337 338 339 339 339 338 337 337 334 334 334 333 332 331 330 330 331 331 332 331 333 332 329
326 329 329 330 332 334 334 334 335 333 334 334 332 331 331 330 329 329 328 328 327 325 324 324 324 325 326 326 326 325 324 327
324 325 327 328 328 330 331 330 329 329 328 326 324 324 324 323 321 322 322 322 321 320 319 319 319 319 321 320 319 319 318 318

GFSFLT1_sfc_thetae_138.txt.gz
Theta_e
337 343 347 347 351 351 349 350 349 345 345 349 347 349 349 350 351 352 351 347 352 347 352 351 352 353 348 350 349 347 343 342
333 337 343 347 350 351 350 351 350 350 351 347 348 348 349 347 349 353 348 351 356 349 347 349 350 349 347 347 343 342 340 339
333 338 341 351 349 352 352 352 352 354 351 350 349 350 350 351 351 353 349 351 357 354 354 354 349 348 349 347 346 347 343 342
328 336 339 345 353 352 351 352 356 360 362 354 353 356 353 355 353 353 354 356 358 356 358 355 353 353 351 350 348 350 348 345
321 329 338 346 351 353 346 355 361 363 370 360 355 358 354 355 358 358 357 359 363 353 358 354 355 355 357 353 352 349 346 346
318 322 337 345 356 355 354 360 363 364 367 366 358 363 359 355 356 358 358 361 361 361 357 353 354 358 354 353 350 347 345 345
319 323 330 346 358 361 358 361 361 362 364 366 366 369 361 365 358 360 359 361 361 361 359 357 362 355 355 353 353 348 346 349
318 324 325 349 358 362 362 360 360 363 363 370 364 365 367 363 360 360 365 362 361 361 359 359 357 354 350 351 346 349 347 347
318 321 325 349 362 360 360 356 359 361 359 359 357 355 360 362 363 362 364 363 361 362 360 356 357 354 354 352 347 343 341 342
318 323 327 351 360 356 359 356 358 357 356 359 357 355 356 357 354 357 361 359 359 358 355 354 356 355 352 349 344 341 340 339
318 320 334 353 347 340 350 350 355 354 355 356 357 358 359 352 355 358 359 357 356 356 357 356 353 352 347 343 342 339 334 337
318 321 335 348 351 343 338 346 352 352 353 355 355 350 347 351 352 355 356 356 356 355 354 352 352 349 346 344 344 337 336 332
316 322 333 338 347 353 350 353 350 354 353 354 351 351 352 353 353 353 356 356 351 351 351 352 349 349 346 345 343 344 343 338
317 323 328 334 341 349 354 354 352 352 352 349 353 352 351 348 347 348 348 349 351 351 348 350 350 349 344 344 344 345 343 339
317 319 322 327 335 347 351 347 346 346 348 351 353 355 351 350 348 345 346 344 346 348 348 348 348 347 346 345 344 341 339 337
316 317 321 323 331 347 345 344 343 343 346 350 353 355 349 347 350 347 344 343 342 344 342 340 340 340 339 339 337 337 338 334
317 318 321 335 345 343 343 343 344 345 343 345 345 347 347 343 345 344 339 340 337 338 339 337 336 335 335 336 332 331 334 333
317 327 339 340 340 340 342 341 339 337 338 337 336 337 339 338 336 334 334 334 334 333 332 332 332 331 331 331 329 328 326 326
331 332 334 334 335 337 336 337 335 335 333 332 331 330 330 330 329 328 328 328 328 325 325 325 323 325 325 326 325 323 322 320
329 330 330 332 332 333 334 330 327 326 326 325 325 325 324 322 321 321 322 321 322 319 320 318 317 317 319 318 317 317 317 316

GFSFLT1_sfc_thetae_141.txt.gz
Theta_e
342 343 344 346 344 344 344 345 346 347 351 351 352 352 352 349 348 348 344 343 346 346 346 350 348 354 348 351 349 348 344 341
334 341 342 346 344 343 343 342 340 339 347 344 344 345 345 343 345 345 341 341 342 339 344 345 344 344 342 340 341 342 340 337
328 331 338 346 345 344 342 342 340 342 342 341 342 342 343 341 343 345 340 340 341 339 340 343 345 343 342 340 340 338 337 336
321 325 327 345 346 344 346 347 347 345 341 340 343 343 344 343 344 345 342 341 342 343 341 344 344 342 342 342 341 343 340 337
319 321 325 347 345 346 346 346 347 348 348 342 345 345 346 346 345 346 345 343 347 348 346 342 342 342 344 343 342 339 337 337
312 314 317 343 338 341 340 346 345 346 353 348 346 350 347 348 349 348 348 348 350 350 349 348 350 349 346 339 338 337 337 337
308 311 311 340 333 334 332 336 341 347 355 354 349 353 348 351 352 350 351 351 351 348 348 348 348 346 343 341 341 339 338 338
309 311 313 338 329 334 337 335 334 340 352 353 354 354 355 353 354 354 356 353 353 350 348 348 347 344 343 342 337 340 337 335
309 311 312 340 336 330 330 333 331 340 347 348 348 347 351 352 356 355 355 352 351 349 348 346 345 343 343 338 336 334 332 334
310 310 309 349 349 345 339 344 346 349 351 350 348 347 348 349 351 351 352 352 351 349 346 344 345 343 341 338 334 331 330 332
308 310 311 351 351 350 349 352 350 349 352 351 346 348 347 345 344 350 349 350 350 348 347 345 343 342 340 336 334 329 327 330
308 310 315 345 340 341 339 350 349 348 352 349 345 344 341 342 345 347 346 348 347 347 345 343 341 340 336 335 337 333 328 322
309 310 331 340 342 340 337 342 345 346 349 350 347 345 342 345 345 345 344 343 343 344 343 341 339 339 338 335 333 331 332 331
309 311 335 340 340 336 332 338 345 345 347 347 346 345 340 340 342 340 340 339 339 341 342 339 339 338 336 335 335 332 331 330
307 321 328 341 338 338 342 345 343 343 344 345 344 341 339 339 341 340 337 336 337 336 337 337 336 335 333 332 330 330 330 327
309 317 322 336 343 345 346 343 341 339 343 344 341 340 340 339 338 337 335 335 333 332 330 329 329 330 328 326 325 325 327 326
307 314 318 337 340 340 341 341 340 341 339 339 339 338 335 333 331 331 330 330 330 328 327 326 325 325 325 322 322 321 319 319
317 321 336 338 338 338 339 337 334 334 334 333 332 330 328 326 325 322 321 321 321 320 320 320 319 319 318 318 317 317 315 314
329 332 334 335 336 334 334 333 330 328 326 324 321 320 320 318 318 317 315 314 313 313 314 312 312 312 311 310 311 311 311 309
327 328 329 329 331 329 326 324 322 321 319 319 317 316 315 313 312 311 311 310 310 310 311 310 312 311 308 307 307 308 307 306

GFSFLT1_sfc_thetae_144.txt.gz
Theta_e
343 345 345 345 346 348 351 352 352 353 354 352 353 353 352 350 350 348 345 344 345 346 343 349 347 353 347 351 349 347 344 342
341 344 345 344 344 345 349 350 349 346 352 349 349 349 347 345 346 344 340 338 340 340 342 344 343 345 342 342 341 342 341 340
343 345 346 344 342 343 345 345 340 345 345 340 342 341 343 343 343 344 340 338 337 339 340 342 342 341 341 338 337 337 337 337
338 340 344 342 341 339 340 339 340 342 338 337 340 340 341 341 342 345 340 339 338 339 336 340 341 342 341 340 338 337 336 336
327 327 343 341 340 340 340 343 346 345 339 339 341 341 342 340 342 344 343 337 338 342 338 340 342 342 340 340 340 339 337 336
317 342 341 341 340 340 343 347 344 345 346 342 342 343 343 342 341 343 344 340 342 346 343 343 346 345 343 342 339 335 334 335
317 341 342 341 341 340 340 338 333 338 345 349 343 346 343 346 346 344 344 344 348 348 347 344 344 343 342 340 339 337 336 335
313 337 342 341 341 340 339 337 335 337 345 350 345 348 344 347 348 346 346 347 349 347 345 345 344 341 340 339 335 337 335 333
307 335 336 339 339 337 336 335 332 338 341 343 345 345 347 350 353 351 349 351 350 347 346 344 343 341 340 337 335 332 330 331
306 322 330 332 332 331 331 333 333 338 340 342 345 346 346 347 349 350 351 350 350 349 346 342 342 340 338 336 334 329 329 329
304 306 328 328 329 330 332 332 332 334 334 338 344 346 345 345 344 346 347 349 349 346 345 343 340 340 338 336 332 329 324 327
304 306 332 333 330 330 332 333 335 336 337 338 340 341 340 341 340 344 344 346 347 345 344 341 340 338 334 333 334 330 328 323
303 306 334 345 342 337 335 340 343 340 341 343 344 344 340 343 343 342 341 340 342 344 341 339 337 337 335 333 330 327 327 326
304 310 338 341 344 344 346 345 345 345 345 346 344 343 339 341 338 338 337 336 338 339 339 337 337 335 333 332 332 330 328 327
304 331 336 337 334 332 337 342 342 340 338 341 342 339 340 338 337 339 334 335 333 333 333 331 330 328 327 327 325 323 323 322
307 333 336 334 328 330 338 341 340 337 337 338 338 337 337 337 337 336 333 331 328 330 328 327 325 325 323 322 320 319 316 316
315 331 336 332 334 338 339 338 337 335 337 334 330 328 329 329 330 330 327 327 326 323 322 321 319 318 317 315 313 313 311 311
316 336 337 339 340 339 337 334 331 330 330 328 325 322 320 319 318 316 314 312 312 312 311 311 311 310 310 309 308 308 306 306
332 335 337 336 335 333 331 328 325 322 321 320 318 317 316 315 314 311 309 309 309 310 310 310 308 306 305 304 304 304 304 303
331 332 332 330 327 325 322 320 318 317 316 314 313 313 312 310 308 308 308 307 307 308 309 306 305 304 303 302 302 302 301 300

GFSFLT1_sfc_thetae_147.txt.gz
Theta_e
342 343 344 344 346 349 350 350 350 351 351 351 352 352 351 350 349 346 344 344 346 346 344 348 347 353 347 350 347 346 342 341
342 342 343 344 345 347 350 349 349 351 351 349 349 348 348 347 348 344 341 339 339 340 339 341 343 344 343 341 341 341 341 341
344 345 345 344 343 347 348 349 349 350 348 348 348 347 346 345 345 343 339 336 337 339 339 340 342 341 341 339 337 338 337 337
342 343 343 343 343 345 347 347 346 348 344 345 345 344 344 344 343 344 341 336 337 338 337 339 340 341 340 339 336 336 336 335
340 344 342 342 342 343 343 339 344 344 342 343 344 343 343 342 343 344 342 338 337 337 337 336 338 339 339 339 338 336 336 336
330 342 343 341 340 340 341 342 341 340 339 340 341 342 342 340 341 343 343 337 336 336 338 337 339 339 339 338 337 335 334 332
326 338 342 339 339 339 340 341 340 340 338 337 338 339 339 339 339 340 342 341 338 338 342 341 343 342 339 338 335 335 334 335
335 339 339 339 339 339 340 340 339 338 341 341 339 341 340 342 342 342 343 343 342 343 345 345 343 340 339 338 335 335 334 333
336 338 338 338 337 337 338 333 332 335 340 342 338 337 340 342 343 346 344 344 346 344 344 343 341 339 338 337 334 332 329 329
333 338 336 336 336 335 335 334 332 334 336 340 342 341 345 345 348 349 347 346 346 346 343 341 342 340 338 334 331 328 327 327
329 332 335 336 335 335 334 334 332 332 333 339 340 342 341 341 343 344 346 347 348 346 342 341 341 339 336 334 332 328 325 325
323 329 330 332 334 335 334 334 330 329 333 335 335 335 337 338 340 343 345 347 347 345 343 339 339 337 334 332 332 328 325 321
307 324 329 331 333 331 332 331 330 331 334 335 335 335 337 340 340 342 342 341 342 343 338 336 335 336 333 332 330 327 325 324
302 321 326 328 330 329 330 329 330 331 334 337 335 336 337 337 337 338 337 337 336 335 336 335 332 331 330 327 323 323 322 323
304 327 332 330 329 327 328 330 330 336 336 335 336 330 334 336 332 337 333 333 331 328 328 327 325 324 324 324 321 318 315 315
303 332 336 337 337 334 333 335 337 337 338 336 335 336 339 335 334 336 331 328 326 326 323 321 320 319 318 315 312 311 310 310
310 330 334 336 335 338 340 338 335 334 330 328 329 333 334 333 330 328 325 322 318 316 314 313 312 312 310 308 307 306 305 305
321 331 329 328 334 335 334 332 328 325 323 322 321 320 321 318 317 315 313 313 311 311 310 308 306 305 304 304 303 303 302 301
329 330 332 335 334 331 327 323 320 318 318 318 315 314 314 313 312 311 310 310 309 308 306 305 304 302 302 300 300 301 300 299
331 332 331 329 326 323 319 317 315 315 314 312 312 311 310 309 308 308 308 306 306 305 304 303 302 301 299 299 299 299 298 299